[[{"header":{"parameterUnit":"m.s-1","parameterCategory":1,"la1":30.2991,"la2":30.254,"lo1":-89.0895,"lo2":-89.0444,"dy":0.0017,"dx":0.0017,"nx":28,"ny":28,"refTime":"2024-06-03T09:00:00:Z","depth":0,"parameterNumber":2,"parameterNumberName":"U-component_of_WINDS"},"data":[0,0,0,0,0,0,0,0,0,0,0,0,0,0,0,0,0,0,0,0,0,0,0,0,0,0,0,0,0,0,0,0,0,0,0,0,0,0,0,0,0,0,0,0,0,0,0,0,0,0,0,0,0,0,0,0,0,0,-0.9338,-0.9338,0,-0.9367,-0.9368,-0.9368,-0.9377,-0.9377,-0.9377,-0.9377,-0.9404,-0.9405,-0.9406,0,0,0,0,0,0,0,0,0,0,0,0,0,-0.9287,-0.9288,-0.9337,-0.9338,-0.9338,-0.9367,-0.9368,-0.9368,-0.9377,-0.9377,-0.9377,-0.9377,-0.9404,-0.9405,-0.9406,0,0,0,0,0,0,0,0,0,0,0,0,0,-0.9312,-0.9288,-0.9337,-0.9346,-0.9348,-0.9367,-0.9368,-0.9368,-0.9377,-0.9377,-0.9377,-0.9377,-0.9404,-0.9405,-0.9406,-0.9418,0,0,-0.941,-0.9411,0,0,0,0,0,0,0,0,-0.931,-0.9314,-0.9345,-0.9346,-0.9347,-0.9368,-0.936,-0.9385,-0.9377,-0.9366,-0.9377,-0.9377,-0.9392,-0.9395,-0.9401,-0.942,-0.9421,-0.941,-0.9411,-0.9412,-0.9412,0,0,0,0,0,0,0,-0.9309,-0.9312,-0.9349,-0.9345,-0.9347,-0.9348,-0.9352,-0.9365,-0.938,-0.9367,-0.9368,-0.9371,-0.9393,-0.9399,-0.9401,-0.9421,-0.941,-0.9412,-0.9412,-0.9413,-0.9453,-0.9453,0,0,0,0,0,0,-0.9306,-0.9311,-0.9348,-0.935,-0.9328,-0.9349,-0.9353,-0.9362,-0.938,-0.9382,-0.9371,-0.9371,-0.9397,-0.94,-0.9402,-0.9418,-0.9412,-0.9413,-0.9414,-0.9452,-0.9453,-0.9453,0,0,0,0,0,0,-0.9305,-0.9309,-0.9347,-0.9331,-0.9336,-0.9351,-0.936,-0.9362,-0.9369,-0.9383,-0.9386,-0.9375,-0.9397,-0.94,-0.9415,-0.9419,-0.9414,-0.9415,-0.9452,-0.9452,-0.9453,-0.945,0,0,0,0,0,0,-0.9303,-0.9308,-0.9314,-0.9331,-0.9337,-0.936,-0.936,-0.9363,-0.9371,-0.9372,-0.9387,-0.939,-0.9397,-0.9413,-0.9416,-0.9421,-0.9416,-0.9452,-0.9452,-0.9453,-0.945,-0.945,-0.9451,0,0,0,0,0,-0.9301,-0.9311,-0.9314,-0.9318,-0.9343,-0.936,-0.9363,-0.9372,-0.9372,-0.9377,-0.9386,-0.9389,-0.9418,-0.9414,-0.9418,-0.9423,-0.9451,-0.9452,-0.9453,-0.9449,-0.945,-0.9451,0,0,0,0,0,0,-0.9292,-0.9313,-0.9317,-0.9332,-0.9344,-0.9361,-0.9368,-0.9373,-0.9384,-0.9384,-0.9394,-0.9398,-0.9411,-0.9419,-0.9414,-0.9436,-0.9435,-0.9436,-0.9431,-0.9432,-0.9432,-0.9431,-0.9417,0,0,0,0,0,-0.9292,-0.9305,-0.9322,-0.9334,-0.934,-0.9353,-0.936,-0.9367,-0.9379,-0.9384,-0.9394,-0.9406,-0.9418,-0.9425,-0.9437,-0.9451,-0.9455,-0.9456,-0.9457,-0.9457,-0.9458,-0.9467,-0.9468,-0.9455,-0.9455,-0.9455,0,0,-0.9292,-0.9305,-0.9312,-0.9332,-0.9342,-0.9355,-0.9357,-0.9369,-0.9379,-0.9386,-0.94,-0.9408,-0.9422,-0.9436,-0.9443,-0.9443,-0.9463,-0.9458,-0.9458,-0.9459,-0.9468,-0.9469,-0.947,-0.9456,-0.9455,-0.9455,0,0,-0.9298,-0.9309,-0.932,-0.9331,-0.9347,-0.9356,-0.9359,-0.9375,-0.9381,-0.9397,-0.9403,-0.9413,-0.9433,-0.9443,-0.945,-0.9461,-0.9465,-0.9464,-0.9467,-0.9476,-0.9477,-0.9478,-0.9482,-0.9484,-0.9465,-0.9465,-0.9465,0,-0.9295,-0.9314,-0.9325,-0.9338,-0.9347,-0.9356,-0.9368,-0.9377,-0.9395,-0.9401,-0.9401,-0.9427,-0.9436,-0.9454,-0.9457,-0.9462,-0.9466,-0.9463,-0.9476,-0.9477,-0.9478,-0.9482,-0.9484,-0.9465,-0.9465,-0.9465,-0.9465,0,-0.9311,-0.9324,-0.9332,-0.9351,-0.9361,-0.9373,-0.9385,-0.9394,-0.94,-0.9408,-0.9424,-0.9436,-0.9451,-0.9455,-0.946,-0.9473,-0.9473,-0.9474,-0.9473,-0.9479,-0.9483,-0.9485,-0.9465,-0.9465,-0.9465,-0.9465,0,0,-0.9311,-0.9337,-0.934,-0.9349,-0.9368,-0.9378,-0.9391,-0.9407,-0.9414,-0.9427,-0.9438,-0.9455,-0.9457,-0.9465,-0.9471,-0.9479,-0.9488,-0.9479,-0.9479,-0.9481,-0.9504,-0.9503,-0.9505,-0.949,-0.949,-0.9491,-0.9503,0,-0.9319,-0.9344,-0.9355,-0.9374,-0.9387,-0.9396,-0.9407,-0.9419,-0.9428,-0.9439,-0.9449,-0.9461,-0.9462,-0.9467,-0.9475,-0.9485,-0.9492,-0.9484,-0.95,-0.9501,-0.9497,-0.9507,-0.9506,-0.9517,-0.9505,-0.9505,-0.9505,0,-0.9333,-0.9347,-0.9368,-0.9387,-0.9393,-0.9402,-0.9418,-0.9429,-0.9444,-0.945,-0.946,-0.9466,-0.948,-0.9478,-0.9496,-0.949,-0.9497,-0.9503,-0.9504,-0.9506,-0.9503,-0.951,-0.9521,-0.9523,-0.9508,-0.9508,-0.9507,0,-0.9332,-0.9356,-0.9372,-0.938,-0.9402,-0.9409,-0.9418,-0.9432,-0.9441,-0.9455,-0.9461,-0.9475,-0.9483,-0.9494,-0.9504,-0.9501,-0.9521,-0.952,-0.9527,-0.9526,-0.9531,-0.953,-0.9543,-0.9534,-0.9534,-0.9534,-0.9534,0,-0.934,-0.9353,-0.9372,-0.9382,-0.9397,-0.9409,-0.9423,-0.9432,-0.9445,-0.9457,-0.9465,-0.9475,-0.9487,-0.9499,-0.9507,-0.9522,-0.9525,-0.953,-0.9532,-0.9529,-0.9529,-0.9534,-0.9534,-0.9535,-0.9535,-0.9535,-0.9535,0,-0.9341,-0.9355,-0.9373,-0.9393,-0.9398,-0.9408,-0.9425,-0.9435,-0.9444,-0.9459,-0.9463,-0.9478,-0.9492,-0.9503,-0.9522,-0.9527,-0.9543,-0.9544,-0.9538,-0.9539,-0.9546,-0.9545,-0.9563,-0.9566,-0.9555,-0.9555,-0.9555,0,-0.9346,-0.9357,-0.9378,-0.9387,-0.9397,-0.9411,-0.9421,-0.9434,-0.9443,-0.9462,-0.9469,-0.9485,-0.9498,-0.9521,-0.9532,-0.9547,-0.9549,-0.9555,-0.9551,-0.9549,-0.955,-0.955,-0.9551,-0.9555,-0.9555,-0.9555,-0.9555,0,-0.9354,-0.9361,-0.9375,-0.9393,-0.9405,-0.9418,-0.9432,-0.9439,-0.9454,-0.9464,-0.948,-0.9491,-0.9511,-0.9526,-0.9542,-0.955,-0.9555,-0.9556,-0.9559,-0.9556,-0.9553,-0.9556,-0.954,-0.9556,-0.9556,-0.9556,-0.9556,-0.9556,-0.9357,-0.9367,-0.9385,-0.9401,-0.9413,-0.9426,-0.9437,-0.9449,-0.9463,-0.9481,-0.9487,-0.9504,-0.9518,-0.9541,-0.955,-0.9562,-0.9562,-0.9565,-0.9566,-0.9567,-0.9567,-0.9551,-0.9565,-0.9565,-0.9565,-0.9565,-0.9565,0,-0.9366,-0.9378,-0.9393,-0.9413,-0.9426,-0.9431,-0.9447,-0.9457,-0.9472,-0.9486,-0.9499,-0.9518,-0.9533,-0.9547,-0.9563,-0.957,-0.9573,-0.9574,-0.9574,-0.9576,-0.9566,-0.9563,-0.9572,-0.9572,-0.9572,-0.9572,-0.9572,-0.9572,-0.9372,-0.9389,-0.9398,-0.9422,-0.9434,-0.9451,-0.946,-0.9472,-0.9484,-0.9505,-0.9518,-0.9527,-0.9541,-0.9558,-0.9572,-0.9576,-0.9582,-0.9582,-0.9586,-0.9577,-0.9576,-0.9575,-0.9573,-0.9583,-0.9583,-0.9595,-0.9595,-0.9595]},{"header":{"parameterUnit":"m.s-1","parameterCategory":1,"la1":30.2991,"la2":30.254,"lo1":-89.0895,"lo2":-89.0444,"dy":0.0017,"dx":0.0017,"nx":28,"ny":28,"refTime":"2024-06-03T09:00:00:Z","depth":0,"parameterNumber":3,"parameterNumberName":"V-component_of_WINDS"},"data":[0,0,0,0,0,0,0,0,0,0,0,0,0,0,0,0,0,0,0,0,0,0,0,0,0,0,0,0,0,0,0,0,0,0,0,0,0,0,0,0,0,0,0,0,0,0,0,0,0,0,0,0,0,0,0,0,0,0,4.2593,4.2594,0,4.2686,4.2688,4.2689,4.2665,4.2664,4.2662,4.266,4.2748,4.2752,4.2756,0,0,0,0,0,0,0,0,0,0,0,0,0,4.2387,4.2391,4.2593,4.2594,4.2596,4.2686,4.2688,4.2689,4.2666,4.2664,4.2661,4.2659,4.2747,4.2752,4.2756,0,0,0,0,0,0,0,0,0,0,0,0,0,4.2478,4.2393,4.2593,4.2595,4.2596,4.2686,4.2688,4.2689,4.2666,4.2663,4.2661,4.2658,4.2745,4.2751,4.2757,4.2848,0,0,4.2776,4.2778,0,0,0,0,0,0,0,0,4.2473,4.2486,4.2594,4.2595,4.2597,4.2662,4.2647,4.2742,4.2667,4.2639,4.266,4.2657,4.2721,4.2729,4.2752,4.2852,4.2856,4.2776,4.278,4.2782,4.2784,0,0,0,0,0,0,0,4.2467,4.2482,4.263,4.2595,4.2597,4.2589,4.2599,4.2665,4.2694,4.2642,4.264,4.2652,4.2721,4.2746,4.2754,4.2857,4.2776,4.2781,4.2785,4.2787,4.3034,4.3037,0,0,0,0,0,0,4.246,4.2476,4.2627,4.2633,4.2527,4.2595,4.2606,4.2643,4.2693,4.2698,4.2654,4.2651,4.2737,4.2747,4.2757,4.2865,4.2782,4.2788,4.2791,4.3031,4.3035,4.3038,0,0,0,0,0,0,4.2456,4.2474,4.2623,4.2554,4.2573,4.2601,4.2644,4.2647,4.2672,4.2703,4.2707,4.2675,4.2736,4.2749,4.2826,4.2867,4.2791,4.2796,4.3028,4.3032,4.3036,4.3082,0,0,0,0,0,0,4.245,4.2473,4.2509,4.2555,4.2577,4.2693,4.2646,4.265,4.2683,4.2679,4.2723,4.2728,4.2735,4.2817,4.2832,4.2874,4.2801,4.3024,4.303,4.3035,4.3076,4.3087,4.3096,0,0,0,0,0,4.2443,4.2517,4.2511,4.253,4.2623,4.2695,4.2707,4.2715,4.2687,4.2722,4.2742,4.2727,4.2861,4.2825,4.2841,4.2886,4.3021,4.3028,4.3034,4.3072,4.3085,4.3096,0,0,0,0,0,0,4.2473,4.2523,4.2517,4.2609,4.2648,4.2691,4.2736,4.2729,4.2775,4.2769,4.2775,4.2785,4.2863,4.2883,4.2841,4.2976,4.2937,4.2947,4.296,4.2972,4.2982,4.2974,4.2806,0,0,0,0,0,4.2491,4.2547,4.2588,4.2665,4.2685,4.2708,4.2739,4.2742,4.2782,4.2797,4.2823,4.2859,4.291,4.2943,4.2991,4.308,4.3088,4.3119,4.3129,4.3137,4.3145,4.3191,4.3204,4.306,4.3059,4.3059,0,0,4.2527,4.2562,4.2596,4.2672,4.2702,4.2757,4.2721,4.2782,4.2822,4.2805,4.288,4.29,4.2941,4.3024,4.3062,4.3043,4.3187,4.3146,4.3152,4.3155,4.3199,4.3212,4.3225,4.3064,4.3063,4.3062,0,0,4.2621,4.2655,4.2721,4.2753,4.2801,4.2815,4.2831,4.2876,4.2889,4.2964,4.2952,4.2999,4.3087,4.3116,4.3142,4.3248,4.3234,4.3263,4.3313,4.3358,4.3369,4.3379,4.3413,4.3426,4.3271,4.3271,4.3272,0,4.2659,4.2745,4.2756,4.2818,4.285,4.284,4.2906,4.2935,4.2995,4.3016,4.2995,4.3104,4.3131,4.3219,4.3245,4.3268,4.3284,4.3256,4.3367,4.3377,4.3387,4.3419,4.3433,4.3274,4.3274,4.3274,4.3273,0,4.2788,4.2847,4.2895,4.2955,4.2993,4.3056,4.3074,4.3111,4.3111,4.3127,4.3202,4.3235,4.3289,4.331,4.331,4.3398,4.3385,4.3366,4.3326,4.3403,4.3434,4.3447,4.3279,4.3278,4.3277,4.3276,0,0,4.2901,4.2968,4.2984,4.3011,4.3063,4.3107,4.317,4.3224,4.3254,4.3296,4.3345,4.342,4.3402,4.3432,4.3435,4.3475,4.3553,4.3451,4.3451,4.3465,4.3648,4.366,4.3674,4.3545,4.3548,4.355,4.3643,0,4.2997,4.3109,4.312,4.3219,4.3272,4.3264,4.3317,4.3354,4.337,4.3416,4.3433,4.3485,4.3459,4.3477,4.3516,4.3535,4.3589,4.3529,4.3588,4.359,4.3575,4.3691,4.3704,4.379,4.3656,4.3658,4.3659,0,4.3124,4.3171,4.3275,4.3319,4.3341,4.339,4.344,4.3485,4.3525,4.3534,4.3568,4.3565,4.3626,4.3587,4.3669,4.3628,4.3653,4.3666,4.3669,4.3672,4.3627,4.3694,4.3818,4.383,4.3679,4.3677,4.3676,0,4.3192,4.3282,4.3355,4.3378,4.3432,4.3465,4.3488,4.3526,4.3558,4.3601,4.3621,4.367,4.3696,4.3733,4.3743,4.3715,4.3824,4.3786,4.383,4.383,4.3851,4.3849,4.3978,4.3873,4.3873,4.3873,4.3872,0,4.3296,4.3359,4.3386,4.3431,4.3501,4.3513,4.3581,4.3602,4.3636,4.3682,4.3678,4.3721,4.3734,4.3779,4.3787,4.3852,4.3864,4.3871,4.3872,4.387,4.3868,4.3884,4.3877,4.3876,4.3875,4.3875,4.3874,0,4.3382,4.3404,4.3483,4.3527,4.354,4.3589,4.3626,4.3667,4.3684,4.3743,4.3757,4.3782,4.3835,4.385,4.3912,4.3917,4.3993,4.399,4.398,4.3978,4.4021,4.4015,4.4161,4.418,4.4066,4.4067,4.4068,0,4.3446,4.3494,4.3545,4.3577,4.3602,4.3654,4.3686,4.37,4.3734,4.3783,4.3818,4.387,4.3912,4.3996,4.4018,4.4065,4.4061,4.4109,4.4068,4.4063,4.4058,4.4053,4.4057,4.4116,4.4117,4.4118,4.4119,0,4.3555,4.3563,4.3612,4.3664,4.3704,4.3745,4.3784,4.381,4.3829,4.3867,4.3921,4.3954,4.4019,4.407,4.4118,4.4138,4.413,4.4132,4.4144,4.4141,4.4132,4.4134,4.3997,4.4128,4.4127,4.4126,4.4126,4.4125,4.3629,4.3672,4.3713,4.3767,4.3799,4.3836,4.3877,4.3899,4.3946,4.4001,4.4006,4.4064,4.4101,4.4164,4.4188,4.4232,4.4217,4.4236,4.424,4.4243,4.4245,4.4128,4.4241,4.4241,4.4241,4.424,4.424,0,4.3736,4.3763,4.3812,4.3868,4.391,4.3903,4.3946,4.398,4.4032,4.4069,4.4111,4.4172,4.4222,4.4248,4.4296,4.4326,4.4324,4.4338,4.4334,4.4338,4.4257,4.424,4.4339,4.4339,4.4339,4.4339,4.4339,4.4339,4.3796,4.3866,4.3879,4.3964,4.3989,4.4048,4.4073,4.4106,4.4135,4.4204,4.4246,4.4264,4.4296,4.4346,4.439,4.4396,4.4413,4.4428,4.4432,4.4355,4.4345,4.4335,4.4319,4.4433,4.4433,4.451,4.451,4.4511]}]]